Weather History for VTUU - March, 2013

Change the Weather History Date:

Sunday, March 24, 2013

  Actual Average Record
Temperature  
Mean Temperature 90 °F -  
Max Temperature 101 °F 97 °F - ()
Min Temperature 78 °F 75 °F - ()
Cooling Degree Days 24    
Growing Degree Days 40 (Base 50)    
Moisture  
Dew Point 74 °F    
Average Humidity 63    
Maximum Humidity 89    
Minimum Humidity 39    
Precipitation  
Precipitation 0.00 in 0.10 in - ()
Sea Level Pressure  
Sea Level Pressure 29.75 in    
Wind  
Wind Speed 3 mph ()    
Max Wind Speed 9 mph    
Max Gust Speed -    
Visibility 4.7 miles    
Events      
T = Trace of Precipitation, MM = Missing Value Source: Averaged Metar Reports

Daily Weather History Graph

Daily Weather History Graph

Search for Another Location

Airport or City:

Trip Planner

Search our weather history database for the weather conditions in past years. The results will help you decide how hot, cold, wet, or windy it might be!

Date:

Astronomy

Mar. 24, 2013 Rise Set
Actual Time 6:01 AM ICT 6:11 PM ICT
Civil Twilight 5:40 AM ICT 6:33 PM ICT
Nautical Twilight 5:15 AM ICT 6:58 PM ICT
Astronomical Twilight 4:50 AM ICT 7:23 PM ICT
Moon 3:30 PM ICT (3/24) 3:26 AM ICT (3/24)
Length of Visible Light 12h 52m
Length of Day
12h 09m
Waxing Gibbous, 88% of the Moon is Illuminated
Mar 24
Waxing Gibbous
Mar 27
Full
Apr 3
Last Quarter
Apr 10
New
Apr 18
First Quarter

Hourly Weather History & Observations

Time (ICT) Temp. Heat Index Dew Point Humidity Pressure Visibility Wind Dir Wind Speed Gust Speed Precip Events Conditions
12:00 AM 84.2 °F 92.3 °F 75.2 °F 74% 29.74 in 4.3 mi Calm Calm - N/A   Unknown
1:00 AM 84 °F - 73 °F 63% 29.77 in 4 mi SSW 2.3 mph - -   Mist
1:00 AM 84.2 °F 90.9 °F 73.4 °F 70% 29.74 in 4.3 mi SSW 2.3 mph - N/A   Unknown
2:00 AM 82.4 °F 88.2 °F 73.4 °F 74% 29.74 in 4.3 mi SSW 3.5 mph - N/A   Unknown
3:00 AM 82.4 °F 88.2 °F 73.4 °F 74% 29.74 in 4.3 mi SSW 2.3 mph - N/A   Unknown
4:00 AM 82.4 °F 88.2 °F 73.4 °F 74% 29.74 in 4.3 mi WSW 2.3 mph - N/A   Unknown
5:00 AM 80.6 °F 86.2 °F 75.2 °F 84% 29.74 in 4.3 mi SE 2.3 mph - N/A   Unknown
6:00 AM 80.6 °F 86.2 °F 75.2 °F 84% 29.77 in 3.7 mi ESE 2.3 mph - N/A   Unknown
6:30 AM 80.6 °F 86.2 °F 75.2 °F 84% 29.77 in 3.7 mi NNE 3.5 mph - N/A   Unknown
7:00 AM 79 °F - 76 °F 87% 29.80 in 3 mi NE 3.5 mph - -   Mist
7:00 AM 78.8 °F - 75.2 °F 89% 29.77 in 3.1 mi NE 3.5 mph - N/A   Unknown
8:00 AM 82.4 °F 89.5 °F 75.2 °F 79% 29.80 in 3.1 mi East 2.3 mph - N/A   Mist
9:00 AM 87.8 °F 97.6 °F 75.2 °F 66% 29.89 in 4.3 mi SW 5.8 mph - N/A   Unknown
11:00 AM 95.0 °F 109.7 °F 77.0 °F 56% 29.86 in 5.0 mi SW 5.8 mph - N/A   Unknown
12:00 PM 95.0 °F 107.4 °F 75.2 °F 53% 29.83 in 5.6 mi SE 9.2 mph - N/A   Mostly Cloudy
1:00 PM 96 °F - 74 °F 39% 29.77 in 6 mi South 5.8 mph - -   Haze
1:00 PM 95.0 °F 107.4 °F 75.2 °F 53% 29.74 in 5.6 mi South 5.8 mph - N/A   Mostly Cloudy
2:00 PM 98.6 °F 109.2 °F 73.4 °F 44% 29.74 in 5.6 mi South 2.3 mph - N/A   Mostly Cloudy
3:00 PM 98.6 °F 107.7 °F 71.6 °F 42% 29.68 in 5.6 mi North 5.8 mph - N/A   Mostly Cloudy
4:00 PM 96.8 °F 107.3 °F 73.4 °F 47% 29.68 in 5.6 mi SSE 3.5 mph - N/A   Mostly Cloudy
5:00 PM 96.8 °F 107.3 °F 73.4 °F 47% 29.68 in 5.6 mi South 3.5 mph - N/A   Mostly Cloudy
5:30 PM 96.8 °F 107.3 °F 73.4 °F 47% 29.68 in 5.0 mi SSE 5.8 mph - N/A   Mostly Cloudy
6:00 PM 95.0 °F 104.5 °F 73.4 °F 49% 29.68 in 5.0 mi SE 2.3 mph - N/A   Mostly Cloudy
7:00 PM 93 °F - 73 °F 44% 29.72 in 5 mi South 2.3 mph - -   Haze
7:00 PM 93.2 °F 105.0 °F 75.2 °F 56% 29.71 in 5.0 mi South 2.3 mph - N/A   Mostly Cloudy
8:00 PM 91.4 °F 105.1 °F 77.0 °F 63% 29.71 in 5.0 mi SW 2.3 mph - N/A   Mostly Cloudy
9:00 PM 89.6 °F 96.2 °F 71.6 °F 55% 29.77 in 5.0 mi SSE 3.5 mph - N/A   Mostly Cloudy
10:00 PM 87.8 °F 95.6 °F 73.4 °F 62% 29.77 in 5.0 mi South 3.5 mph - N/A   Mostly Cloudy